Location: Newark
(31.5350°N, 35.0986°E)
Time: 13:32:10
(UTC+00:00)

Vanguard 1 - Pass Details

Date: 25 September 2019
Orbit: 653 x 3830 km, 34.2° (Epoch: 20 October)

Event Time Altitude Azimuth Distance (km) Brightness Sun altitude
Rises 01:51:08 0° 276° (W) 7,941 - -21.6°
Reaches altitude 10° 01:56:37 10° 278° (W) 6,935 - -20.4°
Exits shadow 02:00:50 19° 279° (W) 6,139 13.5 -19.6°
Maximum altitude 02:20:00 84° 9° (N) 3,107 12.5 -15.5°
Drops below altitude 10° 02:34:22 10° 98° (E) 4,595 14.8 -12.5°
Sets 02:37:10 0° 99° (E) 5,267 15.5 -11.9°
